Time,TemperatureF,DewpointF,PressureIn,WindDirection,WindDirectionDegrees,WindSpeedMPH,WindSpeedGustMPH,Humidity,HourlyPrecipIn,Conditions,Clouds,dailyrainin,SoftwareType,DateUTC
2013-03-05 00:09:00,33.1,28.7,30.03,SE,143,13.0,18.0,84,0.00,CLR,SKC,0.00,WeatherDisplay:10.37,2013-03-05 06:09:00,
2013-03-05 00:19:00,33.1,28.2,30.04,SE,145,9.0,17.0,82,0.00,CLR,SKC,0.00,WeatherDisplay:10.37,2013-03-05 06:19:00,
2013-03-05 00:30:00,33.1,28.2,30.06,SE,146,13.0,14.0,82,0.00,CLR,SKC,0.00,WeatherDisplay:10.37,2013-03-05 06:30:00,
2013-03-05 00:39:00,32.7,27.8,30.05,ESE,120,14.0,17.0,82,0.00,CLR,SKC,0.00,WeatherDisplay:10.37,2013-03-05 06:39:00,
2013-03-05 00:49:00,32.7,27.8,29.99,East,92,0.0,13.0,82,0.00,CLR,SKC,0.00,WeatherDisplay:10.37,2013-03-05 06:49:00,
2013-03-05 01:09:00,32.7,27.8,30.00,North,0,0.0,0.0,82,0.00,CLR,SKC,0.00,WeatherDisplay:10.37,2013-03-05 07:09:00,
2013-03-05 01:19:00,32.7,27.8,30.01,North,0,0.0,0.0,82,0.00,CLR,SKC,0.00,WeatherDisplay:10.37,2013-03-05 07:19:00,
2013-03-05 01:30:00,32.7,27.8,30.01,North,354,0.0,0.0,82,0.00,CLR,SKC,0.00,WeatherDisplay:10.37,2013-03-05 07:30:00,
2013-03-05 01:39:00,32.7,27.8,30.01,North,0,0.0,0.0,82,0.00,CLR,SKC,0.00,WeatherDisplay:10.37,2013-03-05 07:39:00,
2013-03-05 01:49:00,32.7,27.8,30.01,NNW,346,0.0,0.0,82,0.00,CLR,SKC,0.00,WeatherDisplay:10.37,2013-03-05 07:49:00,
2013-03-05 02:09:00,32.7,27.8,30.02,North,0,0.0,0.0,82,0.00,CLR,SKC,0.00,WeatherDisplay:10.37,2013-03-05 08:09:00,
2013-03-05 02:19:00,32.7,27.8,30.02,North,0,0.0,0.0,82,0.00,CLR,SKC,0.00,WeatherDisplay:10.37,2013-03-05 08:19:00,
2013-03-05 02:39:00,32.7,27.8,30.02,North,0,0.0,0.0,82,0.00,CLR,SKC,0.00,WeatherDisplay:10.37,2013-03-05 08:39:00,
2013-03-05 02:49:00,32.7,27.8,30.03,North,0,0.0,0.0,82,0.00,CLR,SKC,0.00,WeatherDisplay:10.37,2013-03-05 08:49:00,
2013-03-05 03:10:00,32.7,27.8,30.02,North,0,0.0,0.0,82,0.00,CLR,SKC,0.00,WeatherDisplay:10.37,2013-03-05 09:10:00,
2013-03-05 03:20:00,32.7,27.8,30.03,NNW,346,0.0,0.0,82,0.00,CLR,SKC,0.00,WeatherDisplay:10.37,2013-03-05 09:20:00,
2013-03-05 03:40:00,32.7,27.8,30.03,WNW,299,0.0,0.0,82,0.00,CLR,SKC,0.00,WeatherDisplay:10.37,2013-03-05 09:40:00,
2013-03-05 03:50:00,32.7,27.8,30.03,NW,308,0.0,0.0,82,0.00,CLR,SKC,0.00,WeatherDisplay:10.37,2013-03-05 09:50:00,
2013-03-05 04:10:00,32.7,27.8,30.03,NW,318,0.0,0.0,82,0.00,CLR,SKC,0.00,WeatherDisplay:10.37,2013-03-05 10:10:00,
2013-03-05 04:20:00,32.7,27.8,30.03,NNW,329,0.0,0.0,82,0.00,CLR,SKC,0.00,WeatherDisplay:10.37,2013-03-05 10:20:00,
2013-03-05 04:30:00,32.7,27.8,30.03,NW,318,0.0,0.0,82,0.00,CLR,SKC,0.00,WeatherDisplay:10.37,2013-03-05 10:30:00,
2013-03-05 04:40:00,32.7,27.8,30.04,WNW,291,0.0,0.0,82,0.00,CLR,SKC,0.00,WeatherDisplay:10.37,2013-03-05 10:40:00,
2013-03-05 04:50:00,32.7,27.8,30.04,NNW,329,0.0,0.0,82,0.00,CLR,SKC,0.00,WeatherDisplay:10.37,2013-03-05 10:50:00,
2013-03-05 05:10:00,32.7,27.8,30.05,NNW,346,0.0,0.0,82,0.00,CLR,SKC,0.00,WeatherDisplay:10.37,2013-03-05 11:10:00,
2013-03-05 05:20:00,32.7,27.8,30.05,NW,308,0.0,0.0,82,0.00,CLR,SKC,0.00,WeatherDisplay:10.37,2013-03-05 11:20:00,
2013-03-05 05:30:00,32.7,27.8,30.06,NNW,329,0.0,0.0,82,0.00,CLR,SKC,0.00,WeatherDisplay:10.37,2013-03-05 11:30:00,
2013-03-05 05:40:00,32.7,27.8,30.06,NNW,329,0.0,0.0,82,0.00,CLR,SKC,0.00,WeatherDisplay:10.37,2013-03-05 11:40:00,
2013-03-05 05:50:00,32.7,27.8,30.06,NNW,338,0.0,0.0,82,0.00,CLR,SKC,0.00,WeatherDisplay:10.37,2013-03-05 11:50:00,
2013-03-05 06:10:00,32.7,27.8,30.06,North,0,0.0,0.0,82,0.00,CLR,SKC,0.00,WeatherDisplay:10.37,2013-03-05 12:10:00,
2013-03-05 06:20:00,32.7,27.8,30.06,North,354,0.0,0.0,82,0.00,CLR,SKC,0.00,WeatherDisplay:10.37,2013-03-05 12:20:00,
2013-03-05 06:30:00,32.7,27.8,30.06,North,354,0.0,0.0,82,0.00,CLR,SKC,0.00,WeatherDisplay:10.37,2013-03-05 12:30:00,
2013-03-05 06:40:00,32.7,27.8,30.06,North,0,0.0,0.0,82,0.00,CLR,SKC,0.00,WeatherDisplay:10.37,2013-03-05 12:40:00,
2013-03-05 06:50:00,32.7,27.8,30.07,North,354,0.0,0.0,82,0.00,CLR,SKC,0.00,WeatherDisplay:10.37,2013-03-05 12:50:00,
2013-03-05 07:10:00,32.7,27.8,30.07,North,0,0.0,0.0,82,0.00,CLR,SKC,0.00,WeatherDisplay:10.37,2013-03-05 13:10:00,
2013-03-05 07:20:00,32.7,27.8,30.07,North,0,0.0,0.0,82,0.00,CLR,SKC,0.00,WeatherDisplay:10.37,2013-03-05 13:20:00,
2013-03-05 07:30:00,32.7,27.8,30.07,North,354,0.0,0.0,82,0.00,CLR,SKC,0.00,WeatherDisplay:10.37,2013-03-05 13:30:00,
2013-03-05 07:40:00,32.7,27.8,30.07,North,0,0.0,0.0,82,0.00,CLR,SKC,0.00,WeatherDisplay:10.37,2013-03-05 13:40:00,
2013-03-05 07:50:00,32.7,27.8,30.07,NNW,346,0.0,0.0,82,0.00,CLR,SKC,0.00,WeatherDisplay:10.37,2013-03-05 13:50:00,
2013-03-05 08:10:00,32.7,27.8,30.08,North,354,0.0,0.0,82,0.00,CLR,SKC,0.00,WeatherDisplay:10.37,2013-03-05 14:10:00,
2013-03-05 08:20:00,32.7,27.8,30.08,NNW,346,0.0,0.0,82,0.00,CLR,SKC,0.00,WeatherDisplay:10.37,2013-03-05 14:20:00,
2013-03-05 08:40:00,32.7,27.8,30.09,North,354,0.0,0.0,82,0.00,CLR,SKC,0.00,WeatherDisplay:10.37,2013-03-05 14:40:00,
2013-03-05 08:50:00,32.7,27.8,30.09,WNW,299,0.0,0.0,82,0.00,CLR,SKC,0.00,WeatherDisplay:10.37,2013-03-05 14:50:00,
2013-03-05 09:10:00,32.7,27.8,30.16,North,354,0.0,0.0,82,0.00,CLR,SKC,0.00,WeatherDisplay:10.37,2013-03-05 15:10:00,
2013-03-05 09:20:00,32.7,27.8,30.16,NW,308,0.0,0.0,82,0.00,CLR,SKC,0.00,WeatherDisplay:10.37,2013-03-05 15:20:00,
2013-03-05 09:40:00,32.7,27.8,30.16,North,354,0.0,0.0,82,0.00,CLR,SKC,0.00,WeatherDisplay:10.37,2013-03-05 15:40:00,
2013-03-05 09:50:00,32.7,27.8,30.17,NNW,338,0.0,0.0,82,0.00,CLR,SKC,0.00,WeatherDisplay:10.37,2013-03-05 15:50:00,
2013-03-05 10:10:00,32.7,27.8,30.17,NW,308,0.0,0.0,82,0.00,CLR,SKC,0.00,WeatherDisplay:10.37,2013-03-05 16:10:00,
2013-03-05 10:20:00,32.7,27.8,30.18,NNW,329,0.0,0.0,82,0.00,CLR,SKC,0.00,WeatherDisplay:10.37,2013-03-05 16:20:00,
2013-03-05 10:40:00,32.7,27.8,30.19,NNW,338,0.0,0.0,82,0.00,CLR,SKC,0.00,WeatherDisplay:10.37,2013-03-05 16:40:00,
2013-03-05 10:50:00,32.7,27.8,30.19,NNW,338,0.0,0.0,82,0.00,CLR,SKC,0.00,WeatherDisplay:10.37,2013-03-05 16:50:00,
2013-03-05 11:10:00,32.7,27.8,30.20,NNW,346,0.0,0.0,82,0.00,CLR,SKC,0.00,WeatherDisplay:10.37,2013-03-05 17:10:00,
2013-03-05 11:20:00,32.7,27.8,30.21,NW,308,0.0,0.0,82,0.00,CLR,SKC,0.00,WeatherDisplay:10.37,2013-03-05 17:20:00,
2013-03-05 11:40:00,32.7,27.8,30.21,NNW,329,0.0,0.0,82,0.00,CLR,SKC,0.00,WeatherDisplay:10.37,2013-03-05 17:40:00,
2013-03-05 11:50:00,32.7,27.8,30.21,North,354,0.0,0.0,82,0.00,CLR,SKC,0.00,WeatherDisplay:10.37,2013-03-05 17:50:00,
2013-03-05 12:10:00,32.7,27.8,30.16,NNW,346,0.0,0.0,82,0.00,CLR,SKC,0.00,WeatherDisplay:10.37,2013-03-05 18:10:00,
2013-03-05 12:20:00,32.7,27.8,30.15,NNW,338,0.0,0.0,82,0.00,CLR,SKC,0.00,WeatherDisplay:10.37,2013-03-05 18:20:00,
2013-03-05 12:40:00,32.7,27.8,30.16,NNW,329,0.0,0.0,82,0.00,CLR,SKC,0.00,WeatherDisplay:10.37,2013-03-05 18:40:00,
2013-03-05 12:50:00,32.7,27.8,30.16,NNW,346,0.0,0.0,82,0.00,CLR,SKC,0.00,WeatherDisplay:10.37,2013-03-05 18:50:00,
2013-03-05 17:10:00,32.7,27.8,30.22,NNW,338,0.0,0.0,82,0.00,CLR,SKC,0.00,WeatherDisplay:10.37,2013-03-05 23:10:00,
2013-03-05 17:20:00,32.7,27.8,30.22,NNW,329,0.0,0.0,82,0.00,CLR,SKC,0.00,WeatherDisplay:10.37,2013-03-05 23:20:00,
2013-03-05 17:40:00,32.7,27.8,30.23,NNW,338,0.0,0.0,82,0.00,CLR,SKC,0.00,WeatherDisplay:10.37,2013-03-05 23:40:00,
2013-03-05 17:50:00,32.7,27.8,30.23,North,354,0.0,0.0,82,0.00,CLR,SKC,0.00,WeatherDisplay:10.37,2013-03-05 23:50:00,
2013-03-05 18:10:00,32.7,27.8,30.24,North,354,0.0,0.0,82,0.00,CLR,SKC,0.00,WeatherDisplay:10.37,2013-03-06 00:10:00,
2013-03-05 18:20:00,32.7,27.8,30.25,North,354,0.0,0.0,82,0.00,CLR,SKC,0.00,WeatherDisplay:10.37,2013-03-06 00:20:00,
2013-03-05 18:40:00,32.7,27.8,30.25,North,0,0.0,0.0,82,0.00,CLR,SKC,0.00,WeatherDisplay:10.37,2013-03-06 00:40:00,
2013-03-05 18:50:00,32.7,27.8,30.25,North,354,0.0,0.0,82,0.00,CLR,SKC,0.00,WeatherDisplay:10.37,2013-03-06 00:50:00,
2013-03-05 19:10:00,32.7,27.8,30.26,NNW,346,0.0,0.0,82,0.00,CLR,SKC,0.00,WeatherDisplay:10.37,2013-03-06 01:10:00,
2013-03-05 19:20:00,32.7,27.8,30.26,North,0,0.0,0.0,82,0.00,CLR,SKC,0.00,WeatherDisplay:10.37,2013-03-06 01:20:00,
2013-03-05 19:40:00,32.7,27.8,30.27,NNW,346,0.0,0.0,82,0.00,CLR,SKC,0.00,WeatherDisplay:10.37,2013-03-06 01:40:00,
2013-03-05 19:50:00,32.7,27.8,30.27,NNW,346,0.0,0.0,82,0.00,CLR,SKC,0.00,WeatherDisplay:10.37,2013-03-06 01:50:00,
2013-03-05 20:10:00,32.7,27.8,30.28,North,0,0.0,0.0,82,0.00,CLR,SKC,0.00,WeatherDisplay:10.37,2013-03-06 02:10:00,
2013-03-05 20:20:00,32.7,27.8,30.29,NNW,346,0.0,0.0,82,0.00,CLR,SKC,0.00,WeatherDisplay:10.37,2013-03-06 02:20:00,
2013-03-05 20:30:00,32.7,27.8,30.29,NNW,338,0.0,0.0,82,0.00,CLR,SKC,0.00,WeatherDisplay:10.37,2013-03-06 02:30:00,
2013-03-05 20:40:00,32.7,27.8,30.29,North,0,0.0,0.0,82,0.00,CLR,SKC,0.00,WeatherDisplay:10.37,2013-03-06 02:40:00,
2013-03-05 20:50:00,32.7,27.8,30.29,North,354,0.0,0.0,82,0.00,CLR,SKC,0.00,WeatherDisplay:10.37,2013-03-06 02:50:00,
2013-03-05 21:10:00,32.7,27.8,30.30,North,354,0.0,0.0,82,0.00,CLR,SKC,0.00,WeatherDisplay:10.37,2013-03-06 03:10:00,
2013-03-05 21:20:00,32.7,27.8,30.30,North,354,0.0,0.0,82,0.00,CLR,SKC,0.00,WeatherDisplay:10.37,2013-03-06 03:20:00,
2013-03-05 21:30:00,32.7,27.8,30.31,North,354,0.0,0.0,82,0.00,CLR,SKC,0.00,WeatherDisplay:10.37,2013-03-06 03:30:00,
2013-03-05 21:40:00,32.7,27.8,30.31,North,354,0.0,0.0,82,0.00,CLR,SKC,0.00,WeatherDisplay:10.37,2013-03-06 03:40:00,
2013-03-05 21:50:00,32.7,27.8,30.31,NNW,338,0.0,0.0,82,0.00,CLR,SKC,0.00,WeatherDisplay:10.37,2013-03-06 03:50:00,
2013-03-05 22:10:00,32.7,27.8,30.31,North,0,0.0,0.0,82,0.00,CLR,SKC,0.00,WeatherDisplay:10.37,2013-03-06 04:10:00,
2013-03-05 22:20:00,32.7,27.8,30.31,North,0,0.0,0.0,82,0.00,CLR,SKC,0.00,WeatherDisplay:10.37,2013-03-06 04:20:00,
2013-03-05 22:30:00,32.7,27.8,30.32,NNW,338,0.0,0.0,82,0.00,CLR,SKC,0.00,WeatherDisplay:10.37,2013-03-06 04:30:00,
2013-03-05 22:40:00,32.7,27.8,30.32,North,0,0.0,0.0,82,0.00,CLR,SKC,0.00,WeatherDisplay:10.37,2013-03-06 04:40:00,
2013-03-05 22:50:00,32.7,27.8,30.32,North,354,0.0,0.0,82,0.00,CLR,SKC,0.00,WeatherDisplay:10.37,2013-03-06 04:50:00,
2013-03-05 23:10:00,32.7,27.8,30.33,North,0,0.0,0.0,82,0.00,CLR,SKC,0.00,WeatherDisplay:10.37,2013-03-06 05:10:00,
2013-03-05 23:20:00,32.7,27.8,30.33,North,0,0.0,0.0,82,0.00,CLR,SKC,0.00,WeatherDisplay:10.37,2013-03-06 05:20:00,
2013-03-05 23:40:00,32.7,27.8,30.34,North,0,0.0,0.0,82,0.00,CLR,SKC,0.00,WeatherDisplay:10.37,2013-03-06 05:40:00,
2013-03-05 23:50:00,32.7,27.8,30.34,North,0,0.0,0.0,82,0.00,CLR,SKC,0.00,WeatherDisplay:10.37,2013-03-06 05:50:00,